Chandler, OK

5:10 PM CDT on March 23, 2017 (GMT -0500)
Chandler Municipal

Weather History for KCQB - September, 2013

Change the Weather History Date:

Friday, September 27, 2013

  Actual Average (KCUH) Record (KCUH)
Temperature  
Mean Temperature 80 °F -  
Max Temperature 91 °F 79 °F 98 °F (1953)
Min Temperature 68 °F 56 °F 45 °F (1985)
Cooling Degree Days 14    
Growing Degree Days 30 (Base 50)    
Moisture  
Dew Point 65 °F    
Average Humidity 62    
Maximum Humidity 88    
Minimum Humidity 38    
Precipitation  
Precipitation 0.00 in - - ()
Sea Level Pressure  
Sea Level Pressure 29.89 in    
Wind  
Wind Speed 10 mph (SSE)    
Max Wind Speed 22 mph    
Max Gust Speed 28 mph    
Visibility 10 miles    
Events      
Averages and records for this station are not official NWS values.
T = Trace of Precipitation, MM = Missing Value Source: NWS Daily Summary

Daily Weather History Graph

Daily Weather History Graph

Search for Another Location

Airport or City:

Trip Planner

Search our weather history database for the weather conditions in past years. The results will help you decide how hot, cold, wet, or windy it might be!

Date:

Astronomy

Sep. 27, 2013 Rise Set
Actual Time 7:19 AM CDT 7:16 PM CDT
Civil Twilight 6:53 AM CDT 7:41 PM CDT
Nautical Twilight 6:24 AM CDT 8:11 PM CDT
Astronomical Twilight 5:54 AM CDT 8:41 PM CDT
Moon 12:26 AM CDT (9/27) 2:45 PM CDT (9/27)
Length of Visible Light 12h 47m
Length of Day
11h 57m
Last Quarter, 45% of the Moon is Illuminated
Sep 27
Last Quarter
Oct 4
New
Oct 11
First Quarter
Oct 18
Full
Oct 26
Last Quarter

Hourly Weather History & Observations

Time (CDT) Temp. Heat Index Dew Point Humidity Pressure Visibility Wind Dir Wind Speed Gust Speed Precip Events Conditions
12:15 AM 77.0 °F - 62.6 °F 61% 29.88 in 10.0 mi South 11.5 mph 16.1 mph N/A   Clear
12:35 AM 77.0 °F - 62.6 °F 61% 29.88 in 10.0 mi South 11.5 mph 17.3 mph N/A   Clear
12:55 AM 77.0 °F - 62.6 °F 61% 29.89 in 10.0 mi South 12.7 mph 16.1 mph N/A   Clear
1:15 AM 77.0 °F - 62.6 °F 61% 29.89 in 10.0 mi South 9.2 mph - N/A   Clear
1:35 AM 77.0 °F - 62.6 °F 61% 29.89 in 10.0 mi South 10.4 mph - N/A   Clear
1:55 AM 75.2 °F - 62.6 °F 65% 29.89 in 10.0 mi South 10.4 mph - N/A   Clear
2:15 AM 73.4 °F - 62.6 °F 69% 29.90 in 10.0 mi South 9.2 mph - N/A   Clear
2:35 AM 73.4 °F - 62.6 °F 69% 29.90 in 10.0 mi South 8.1 mph - N/A   Clear
2:55 AM 73.4 °F - 62.6 °F 69% 29.91 in 10.0 mi South 6.9 mph - N/A   Clear
3:15 AM 71.6 °F - 62.6 °F 73% 29.91 in 10.0 mi SSE 4.6 mph - N/A   Clear
3:35 AM 71.6 °F - 62.6 °F 73% 29.91 in 10.0 mi SSE 6.9 mph - N/A   Clear
3:55 AM 71.6 °F - 62.6 °F 73% 29.90 in 10.0 mi SSE 6.9 mph - N/A   Clear
4:15 AM 71.6 °F - 62.6 °F 73% 29.90 in 10.0 mi South 6.9 mph - N/A   Clear
4:35 AM 71.6 °F - 62.6 °F 73% 29.90 in 10.0 mi South 8.1 mph - N/A   Clear
4:55 AM 71.6 °F - 62.6 °F 73% 29.90 in 10.0 mi South 6.9 mph - N/A   Clear
5:15 AM 69.8 °F - 62.6 °F 78% 29.90 in 10.0 mi South 5.8 mph - N/A   Clear
5:35 AM 69.8 °F - 62.6 °F 78% 29.91 in 10.0 mi SSE 6.9 mph - N/A   Clear
5:55 AM 69.8 °F - 62.6 °F 78% 29.91 in 10.0 mi SSE 6.9 mph - N/A   Clear
6:15 AM 68.0 °F - 64.4 °F 88% 29.92 in 10.0 mi SSE 5.8 mph - N/A   Clear
6:35 AM 68.0 °F - 64.4 °F 88% 29.92 in 10.0 mi SSE 6.9 mph - N/A   Clear
6:55 AM 68.0 °F - 64.4 °F 88% 29.93 in 10.0 mi SE 6.9 mph - N/A   Clear
7:15 AM 68.0 °F - 64.4 °F 88% 29.93 in 10.0 mi SSE 5.8 mph - N/A   Clear
7:35 AM 68.0 °F - 64.4 °F 88% 29.94 in 7.0 mi SE 3.5 mph - N/A   Clear
7:55 AM 68.0 °F - 64.4 °F 88% 29.94 in 10.0 mi SE 4.6 mph - N/A   Clear
8:15 AM 69.8 °F - 64.4 °F 83% 29.95 in 10.0 mi SE 6.9 mph - N/A   Clear
8:35 AM 69.8 °F - 64.4 °F 83% 29.95 in 10.0 mi SSE 8.1 mph - N/A   Clear
8:55 AM 73.4 °F - 64.4 °F 73% 29.95 in 10.0 mi SSE 10.4 mph - N/A   Clear
9:15 AM 75.2 °F - 66.2 °F 73% 29.95 in 10.0 mi SSE 8.1 mph - N/A   Clear
9:35 AM 77.0 °F - 68.0 °F 74% 29.95 in 10.0 mi South 10.4 mph - N/A   Clear
9:55 AM 78.8 °F - 68.0 °F 69% 29.95 in 10.0 mi SSE 9.2 mph - N/A   Clear
10:15 AM 78.8 °F - 68.0 °F 69% 29.95 in 10.0 mi SSE 10.4 mph - N/A   Clear
10:35 AM 80.6 °F 83.2 °F 68.0 °F 65% 29.96 in 10.0 mi South 9.2 mph - N/A   Clear
10:55 AM 82.4 °F 85.4 °F 68.0 °F 62% 29.96 in 10.0 mi South 11.5 mph 16.1 mph N/A   Clear
11:15 AM 84.2 °F 87.3 °F 68.0 °F 58% 29.95 in 10.0 mi SSE 12.7 mph 18.4 mph N/A   Clear
11:35 AM 86.0 °F 89.4 °F 68.0 °F 55% 29.95 in 10.0 mi SSE 11.5 mph 18.4 mph N/A   Clear
11:55 AM 86.0 °F 88.2 °F 66.2 °F 51% 29.94 in 10.0 mi SSE 15.0 mph 18.4 mph N/A   Clear
12:15 PM 87.8 °F 89.4 °F 64.4 °F 46% 29.93 in 10.0 mi South 12.7 mph 21.9 mph N/A   Scattered Clouds
12:35 PM 87.8 °F 89.4 °F 64.4 °F 46% 29.92 in 10.0 mi SSW 15.0 mph 21.9 mph N/A   Scattered Clouds
12:55 PM 87.8 °F 89.4 °F 64.4 °F 46% 29.92 in 10.0 mi South 16.1 mph 25.3 mph N/A   Clear
1:15 PM 89.6 °F 90.1 °F 62.6 °F 40% 29.91 in 10.0 mi South 15.0 mph 24.2 mph N/A   Clear
1:35 PM 89.6 °F 90.1 °F 62.6 °F 40% 29.91 in 7.0 mi South 16.1 mph 23.0 mph N/A   Scattered Clouds
1:55 PM 89.6 °F 90.1 °F 62.6 °F 40% 29.90 in 7.0 mi South 12.7 mph 21.9 mph N/A   Clear
2:15 PM 91.4 °F 92.1 °F 62.6 °F 38% 29.88 in 10.0 mi SSE 17.3 mph 27.6 mph N/A   Clear
2:35 PM 89.6 °F 90.1 °F 62.6 °F 40% 29.88 in 7.0 mi South 15.0 mph 18.4 mph N/A   Clear
2:55 PM 89.6 °F 90.1 °F 62.6 °F 40% 29.87 in 10.0 mi South 21.9 mph 26.5 mph N/A   Clear
3:15 PM 91.4 °F 92.1 °F 62.6 °F 38% 29.86 in 10.0 mi SSE 16.1 mph 24.2 mph N/A   Scattered Clouds
3:35 PM 89.6 °F 91.1 °F 64.4 °F 43% 29.86 in 10.0 mi South 13.8 mph 24.2 mph N/A   Mostly Cloudy
3:55 PM 89.6 °F 91.1 °F 64.4 °F 43% 29.85 in 10.0 mi South 11.5 mph 20.7 mph N/A   Scattered Clouds
4:15 PM 91.4 °F 93.2 °F 64.4 °F 41% 29.85 in 7.0 mi South 15.0 mph 21.9 mph N/A   Mostly Cloudy
4:35 PM 89.6 °F 91.1 °F 64.4 °F 43% 29.85 in 10.0 mi South 12.7 mph 20.7 mph N/A   Mostly Cloudy
4:55 PM 89.6 °F 91.1 °F 64.4 °F 43% 29.85 in 10.0 mi South 10.4 mph 20.7 mph N/A   Scattered Clouds
5:15 PM 89.6 °F 91.1 °F 64.4 °F 43% 29.84 in 10.0 mi SSE 17.3 mph 23.0 mph N/A   Scattered Clouds
5:35 PM 89.6 °F 91.1 °F 64.4 °F 43% 29.84 in 7.0 mi South 16.1 mph 21.9 mph N/A   Clear
5:55 PM 87.8 °F 89.4 °F 64.4 °F 46% 29.84 in 10.0 mi SSE 16.1 mph 21.9 mph N/A   Clear
6:15 PM 87.8 °F 89.4 °F 64.4 °F 46% 29.84 in 7.0 mi SSE 11.5 mph 20.7 mph N/A   Clear
6:35 PM 87.8 °F 89.4 °F 64.4 °F 46% 29.84 in 10.0 mi South 12.7 mph 19.6 mph N/A   Clear
6:55 PM 86.0 °F 87.3 °F 64.4 °F 48% 29.83 in 10.0 mi SSE 12.7 mph 19.6 mph N/A   Clear
7:15 PM 86.0 °F 87.3 °F 64.4 °F 48% 29.83 in 10.0 mi South 11.5 mph 17.3 mph N/A   Clear
7:35 PM 82.4 °F 84.6 °F 66.2 °F 58% 29.83 in 10.0 mi SSE 6.9 mph - N/A   Clear
7:55 PM 82.4 °F 84.6 °F 66.2 °F 58% 29.84 in 10.0 mi SSE 8.1 mph - N/A   Scattered Clouds
8:15 PM 80.6 °F 82.7 °F 66.2 °F 61% 29.84 in 10.0 mi SSE 8.1 mph - N/A   Scattered Clouds
8:35 PM 80.6 °F 82.7 °F 66.2 °F 61% 29.84 in 10.0 mi SSE 6.9 mph - N/A   Clear
8:55 PM 80.6 °F 82.7 °F 66.2 °F 61% 29.84 in 10.0 mi SSE 8.1 mph - N/A   Clear
9:15 PM 80.6 °F 82.7 °F 66.2 °F 61% 29.85 in 10.0 mi SSE 9.2 mph - N/A   Clear
9:35 PM 80.6 °F 83.2 °F 68.0 °F 65% 29.86 in 10.0 mi SSE 8.1 mph - N/A   Clear
9:55 PM 78.8 °F - 68.0 °F 69% 29.87 in 10.0 mi South 9.2 mph - N/A   Clear
10:15 PM 80.6 °F 83.2 °F 68.0 °F 65% 29.87 in 10.0 mi South 10.4 mph - N/A   Clear
10:35 PM 80.6 °F 83.2 °F 68.0 °F 65% 29.87 in 10.0 mi South 10.4 mph - N/A   Clear
10:55 PM 78.8 °F - 68.0 °F 69% 29.87 in 10.0 mi SSE 10.4 mph - N/A   Clear
11:15 PM 78.8 °F - 68.0 °F 69% 29.86 in 10.0 mi SSE 10.4 mph - N/A   Clear
11:35 PM 78.8 °F - 68.0 °F 69% 29.86 in 10.0 mi SSE 8.1 mph - N/A   Clear
11:55 PM 78.8 °F - 68.0 °F 69% 29.86 in 10.0 mi South 9.2 mph - N/A   Scattered Clouds